This is the latest recevied weather packets stored in our database for station/object WX4LTG. If no packets are shown the sender has not sent any weather packets the latest 10 day(s).
| Time | Temp. | Humidity | Pressure | Rain* | Wind** | Luminosity | Snow |
|---|---|---|---|---|---|---|---|
| 1777415672 | 28.89° C | 16% | 1013.6 hPa | 0 mm | - | 472 W/m² | - |
| 1777415368 | 28.89° C | 16% | 1013.6 hPa | 0 mm | - | 495 W/m² | - |
| 1777415067 | 28.89° C | 15% | 1013.4 hPa | 0 mm | - | 490 W/m² | - |
| 1777414767 | 28.33° C | 15% | 1013.8 hPa | 0 mm | - | 525 W/m² | - |
| 1777414463 | 28.89° C | 16% | 1013.9 hPa | 0 mm | - | 520 W/m² | - |
| 1777414162 | 28.89° C | 16% | 1014.1 hPa | 0 mm | - | 496 W/m² | - |
| 1777413858 | 27.78° C | 16% | 1014.1 hPa | 0 mm | - | 502 W/m² | - |
| 1777413554 | 27.78° C | 16% | 1014.1 hPa | 0 mm | - | 507 W/m² | - |
| 1777413250 | 28.33° C | 16% | 1014.1 hPa | 0 mm | - | 586 W/m² | - |
| 1777412945 | 28.33° C | 15% | 1014.2 hPa | 0 mm | - | 598 W/m² | - |
| 1777412644 | 28.33° C | 16% | 1014.4 hPa | 0 mm | - | 607 W/m² | - |
| 1777412342 | 27.78° C | 17% | 1014.4 hPa | 0 mm | - | 627 W/m² | - |
| 1777412037 | 28.33° C | 17% | 1014.7 hPa | 0 mm | - | 640 W/m² | - |
| 1777411737 | 27.78° C | 17% | 1014.3 hPa | 0 mm | - | 647 W/m² | - |
| 1777411432 | 28.33° C | 17% | 1014.5 hPa | 0 mm | - | 652 W/m² | - |
| 1777411127 | 28.89° C | 17% | 1015.1 hPa | 0 mm | - | 571 W/m² | - |
| 1777410826 | 28.89° C | 17% | 1014.9 hPa | 0 mm | - | 672 W/m² | - |
| 1777410526 | 28.33° C | 17% | 1014.9 hPa | 0 mm | - | 677 W/m² | - |
| 1777410225 | 27.78° C | 17% | 1015 hPa | 0 mm | - | 683 W/m² | - |
| 1777409920 | 27.78° C | 17% | 1014.9 hPa | 0 mm | - | 672 W/m² | - |
| 1777409616 | 27.78° C | 17% | 1015 hPa | 0 mm | - | 689 W/m² | - |
| 1777409312 | 27.78° C | 17% | 1015 hPa | 0 mm | - | 686 W/m² | - |
| 1777409008 | 27.22° C | 18% | 1015.2 hPa | 0 mm | - | 713 W/m² | - |
| 1777408705 | 27.78° C | 18% | 1015.2 hPa | 0 mm | - | 719 W/m² | - |
| 1777408401 | 27.78° C | 18% | 1015.2 hPa | 0 mm | - | 704 W/m² | - |
* Rain latest hour (hover to see other rain measurements)
** Current wind speed in m/s (hover to see current wind gust speed)